Погода в Каратобе

Казахстан     49°41′28″N   53°30′18″E
темп.,
°C
ветер,
м/с
пор.,
м/с
влажн.,
%
обл.,
%
осадки,
мм/ч
давл.,
гПа
погр.,
м
19 сентября, вс
вс1923:00+8сз33515 0.0 102016
02:00+7ссв46485 0.0 102173
05:00+5св346892 0.0 102254
08:00+5ссв34655 0.0 102380
11:00+11ссв444217 0.0 1024830
14:00+14с333268 0.0 10241392
17:00+15с222426 0.0 10231371
20:00+11св33325 0.0 102319
20 сентября, пн
пн2023:00+9всв44395 0.0 102449
02:00+8в454225 0.0 102458
05:00+7в454528 0.0 102460
08:00+7в46435 0.0 1024130
11:00+15вюв56265 0.0 1024748
14:00+19вюв442038 0.0 10221381
17:00+20вюв441756 0.0 10211598
20:00+15всв572343 0.0 102182
21 сентября, вт
вт2123:00+13в61124100 0.0 1021197
02:00+13в51123100 0.0 1022279
05:00+13вюв3523100 0.0 1022153
08:00+12в4744100 0.1 1021185
11:00+15вюв5825100 0.1 1022319
14:00+16вюв593289 0.0 1021472
17:00+18ююв6829100 0.0 1020683
20:00+17юв61026100 0.0 1020358
22 сентября, ср
ср2223:00+17юв61126100 0.0 1020357
02:00+14вюв4842100 0.4 1020246
05:00+15вюв61029100 0.5 1020275
08:00+15юв71124100 0.0 1020390
11:00+16юв71025100 0.0 1021658
14:00+19ююв8919100 0.0 10211141
17:00+19юв6820100 0.0 10211083
20:00+17вюв61022100 0.0 1021306
23 сентября, чт
чт2323:00+16вюв51222100 0.0 1021316
02:00+16юв51120100 0.0 1022363
05:00+15вюв51023100 0.0 1023345
08:00+14юв61225100 0.0 1023434
11:00+16юв71123100 0.0 1024705
14:00+20юв7920100 0.0 10231561
17:00+20юв6822100 0.0 10231726
20:00+18вюв4925100 0.0 1022233